Location: Unspecified
(52.4292°N, 19.3359°E)
Time: 23:49:29
(UTC+02:00)

A-11 Canister half - Pass Details

Date: 25 May 2024
Orbit: 1515 x 1685 km, 47.2° (Epoch: 19 June)

Event Time Altitude Azimuth Distance (km) Brightness Sun altitude
Rises 08:11:39 0° 285° (WNW) 4,688 11.0 30.5°
Reaches altitude 10° 08:15:03 10° 276° (W) 3,691 10.6 31.0°
Maximum altitude 08:22:59 33° 217° (SW) 2,316 10.0 32.2°
Drops below altitude 10° 08:30:54 10° 157° (SSE) 3,679 11.5 33.4°
Sets 08:34:18 0° 149° (SSE) 4,670 12.0 33.9°
